Regional Weather Roundup
Issued by NWS Cleveland, OH

Home | Current Version | Previous Version | Graphics & Text | Print | Product List | Glossary On
Versions: 1 2 3 4 5 6 7 8 9 10 11 12 13 14 15 16 17 18 19 20 21 22 23 24 25 26 27 28 29 30 31 32 33 34 35 36 37 38 39 40 41 42 43 44 45 46 47 48 49 50
000
ASUS41 KCLE 290602
RWRCLE
OHIO REGIONAL WEATHER ROUNDUP
NATIONAL WEATHER SERVICE CLEVELAND, OH
100 AM EST MON DEC 29 2014

NOTE: "FAIR" INDICATES FEW OR NO CLOUDS BELOW 12,000 FEET WITH NO
SIGNIFICANT WEATHER AND/OR OBSTRUCTIONS TO VISIBILITY.

OHZ001>008-015>018-024>027-034-035-043-044-290700-
   NORTHWEST OHIO

CITY           SKY/WX    TMP DP  RH WIND       PRES   REMARKS
DEFIANCE       CLEAR     25  22  88 CALM      30.24R
FINDLAY        CLEAR     27  23  85 W5        30.21R WCI  22
TOLEDO EXPRESS CLEAR     24  21  88 W3        30.22R
TOLEDO EXEC    CLEAR     25  21  85 W6        30.23R WCI  18
LIMA           CLEAR     28  24  85 NW7       30.21S FOG     WCI  21
$$

OHZ009>014-019>023-028>033-038-089-290700-
   NORTHEAST OHIO

CITY           SKY/WX    TMP DP  RH WIND       PRES   REMARKS
CLE-HOPKINS    PTCLDY    27  24  89 W6        30.22R WCI  20
CLE-LAKEFRONT  MOCLDY    35  26  69 W13       30.19R WCI  26
CUY CO. ARPT   NOT AVBL
LORAIN-ELYRIA  CLEAR     28  25  88 W6        30.20R WCI  22
ASHTABULA      CLOUDY    32  26  78 CALM      30.17S
AKRON-CANTON   MOCLDY    30  25  81 W6        30.17R WCI  24
WOOSTER        PTCLDY    28  25  88 CALM      30.19R
MANSFIELD      PTCLDY    27  24  89 W5        30.18R WCI  22
YOUNGSTOWN     CLOUDY    31  27  85 W5        30.16R WCI  26
$$

OHZ042-051>053-060>062-070>072-077>081-290700-
  SOUTHWEST OHIO

CITY           SKY/WX    TMP DP  RH WIND       PRES   REMARKS
CINC-COVINGTON CLOUDY    32  26  78 N9        30.19F WCI  24
CINC-LUNKEN    CLOUDY    32  28  85 N5        30.23S WCI  27
HAMILTON       CLOUDY    29  27  92 N5        30.23S WCI  24
DAYTON         PTCLDY    27  24  89 N6        30.21F WCI  20
WRIGHT-PAT AFB PTCLDY    29  26  89 N8        30.21F WCI  21
DAYTON GENERAL MOCLDY    29  26  89 N6        30.19F WCI  23
WILMINGTON     CLOUDY    30  27  88 N7        30.19F WCI  23
$$

OHZ036-037-039>041-045>050-054>059-063>069-073>076-082>088-290700-
  CENTRAL AND SOUTHEAST OHIO

CITY           SKY/WX    TMP DP  RH WIND       PRES   REMARKS
COLUMBUS       MOCLDY    30  26  85 N3        30.20S
OSU AIRPORT    MOCLDY    28  24  85 NW6       30.20R WCI  22
BOLTON FIELD   NOT AVBL
RICKENBACK AFB NOT AVBL
NEWARK         CLOUDY    32  26  78 N3        30.18S
MARION         PTCLDY    27  24  89 NW5       30.20S WCI  22
LANCASTER      CLOUDY    33  28  81 N3        30.19F
ZANESVILLE     CLOUDY    32  28  85 N3        30.18S
NEW PHILLY     MOCLDY    34  28  79 NW5       30.19R WCI  30
$$


USA.gov is the U.S. government's official web portal to all federal, state and local government web resources and services.